Location: Newark
(37.8444°N, 127.0614°E)
Time: 13:39:04
(UTC+00:00)

XW-2F - Pass Details

Date: 21 January 2020
Orbit: 502 x 523 km, 97.5° (Epoch: 25 February)

Event Time Altitude Azimuth Distance (km) Brightness Sun altitude
Rises 09:50:53 0° 207° (SSW) 2,635 ? -13.6°
Reaches altitude 10° 09:53:45 10° 231° (SW) 1,750 ? -14.2°
Maximum altitude 09:55:56 15° 267° (W) 1,470 ? -14.6°
Drops below altitude 10° 09:58:08 10° 302° (WNW) 1,752 ? -15.0°
Sets 10:01:01 0° 327° (NNW) 2,640 ? -15.6°
